Fulton, NY

12:19 PM EST on February 26, 2017 (GMT -0500)
Oswego County

Weather History for KFZY - September, 2013

Change the Weather History Date:

Tuesday, September 3, 2013

  Actual Average (KSYR) Record (KSYR)
Temperature  
Mean Temperature 64 °F -  
Max Temperature 68 °F 74 °F 97 °F (1953)
Min Temperature 61 °F 55 °F 39 °F (1941)
Growing Degree Days 14 (Base 50)    
Moisture  
Dew Point 58 °F    
Average Humidity 82    
Maximum Humidity 90    
Minimum Humidity 70    
Precipitation  
Precipitation 0.03 in - - ()
Sea Level Pressure  
Sea Level Pressure 29.82 in    
Wind  
Wind Speed 5 mph (WSW)    
Max Wind Speed 17 mph    
Max Gust Speed 24 mph    
Visibility 10 miles    
Events Rain    
Averages and records for this station are not official NWS values.
T = Trace of Precipitation, MM = Missing Value Source: NWS Daily Summary

Daily Weather History Graph

Daily Weather History Graph

Search for Another Location

Airport or City:

Trip Planner

Search our weather history database for the weather conditions in past years. The results will help you decide how hot, cold, wet, or windy it might be!

Date:

Astronomy

Sep. 03, 2013 Rise Set
Actual Time 6:32 AM EDT 7:36 PM EDT
Civil Twilight 6:02 AM EDT 8:05 PM EDT
Nautical Twilight 5:27 AM EDT 8:40 PM EDT
Astronomical Twilight 4:50 AM EDT 9:17 PM EDT
Moon 4:42 AM EDT (9/3) 6:23 PM EDT (9/3)
Length of Visible Light 14h 03m
Length of Day
13h 04m
Waning Crescent, 3% of the Moon is Illuminated
Sep 3
Waning Crescent
Sep 5
New
Sep 12
First Quarter
Sep 19
Full
Sep 26
Last Quarter

Hourly Weather History & Observations

Time (EDT) Temp. Dew Point Humidity Pressure Visibility Wind Dir Wind Speed Gust Speed Precip Events Conditions
12:28 AM 64.4 °F 60.8 °F 88% 29.77 in 10.0 mi Calm Calm - N/A   Overcast
12:54 AM 63.0 °F 60.1 °F 90% 29.77 in 10.0 mi Calm Calm - N/A   Overcast
1:13 AM 64.4 °F 60.8 °F 88% 29.78 in 10.0 mi Calm Calm - N/A   Overcast
1:30 AM 64.4 °F 60.8 °F 88% 29.78 in 10.0 mi Calm Calm - N/A   Overcast
1:54 AM 64.0 °F 60.1 °F 87% 29.77 in 10.0 mi Calm Calm - N/A   Overcast
2:54 AM 64.0 °F 60.1 °F 87% 29.76 in 10.0 mi SW 4.6 mph - 0.00 in   Overcast
3:44 AM 62.6 °F 59.0 °F 88% 29.77 in 10.0 mi WSW 5.8 mph - N/A   Overcast
3:54 AM 63.0 °F 59.0 °F 87% 29.77 in 10.0 mi WSW 5.8 mph - N/A   Overcast
4:54 AM 63.0 °F 57.9 °F 84% 29.78 in 9.0 mi SW 5.8 mph - 0.00 in Rain Light Rain
5:54 AM 62.1 °F 57.9 °F 86% 29.78 in 10.0 mi SW 5.8 mph - 0.00 in   Overcast
6:54 AM 61.0 °F 57.9 °F 90% 29.80 in 7.0 mi WSW 3.5 mph - 0.01 in Rain Light Rain
7:54 AM 63.0 °F 57.0 °F 81% 29.80 in 10.0 mi SW 8.1 mph - 0.00 in   Overcast
8:54 AM 63.0 °F 57.9 °F 84% 29.81 in 10.0 mi SW 10.4 mph - N/A   Overcast
9:54 AM 64.9 °F 57.0 °F 75% 29.81 in 10.0 mi WSW 13.8 mph - N/A   Overcast
10:54 AM 68.0 °F 57.9 °F 70% 29.82 in 10.0 mi WSW 8.1 mph - 0.01 in   Mostly Cloudy
11:54 AM 66.0 °F 55.9 °F 70% 29.82 in 10.0 mi WNW 10.4 mph 18.4 mph N/A   Overcast
12:54 PM 66.0 °F 57.0 °F 73% 29.83 in 10.0 mi West 15.0 mph 19.6 mph N/A   Overcast
1:54 PM 64.0 °F 57.9 °F 80% 29.83 in 10.0 mi West 12.7 mph - 0.00 in Rain Light Rain
2:54 PM 64.9 °F 57.0 °F 75% 29.83 in 10.0 mi WSW 17.3 mph 24.2 mph 0.00 in   Overcast
3:54 PM 64.0 °F 55.9 °F 75% 29.83 in 10.0 mi West 13.8 mph 23.0 mph N/A   Overcast
4:07 PM 62.6 °F 55.4 °F 77% 29.84 in 10.0 mi WSW 11.5 mph - N/A   Overcast
4:14 PM 62.6 °F 55.4 °F 77% 29.84 in 10.0 mi WSW 9.2 mph - N/A   Overcast
4:54 PM 63.0 °F 55.9 °F 78% 29.83 in 10.0 mi WSW 8.1 mph - N/A   Overcast
5:54 PM 64.9 °F 57.0 °F 75% 29.84 in 10.0 mi WSW 13.8 mph - N/A   Overcast
6:54 PM 64.0 °F 55.9 °F 75% 29.84 in 10.0 mi WSW 8.1 mph - 0.00 in   Overcast
7:54 PM 63.0 °F 57.9 °F 84% 29.86 in 10.0 mi WSW 6.9 mph - 0.01 in Rain Light Rain
8:54 PM 63.0 °F 57.9 °F 84% 29.89 in 10.0 mi SW 6.9 mph - 0.00 in   Overcast
9:54 PM 63.0 °F 57.9 °F 84% 29.89 in 10.0 mi SW 4.6 mph - N/A   Overcast
10:54 PM 62.1 °F 57.9 °F 86% 29.90 in 10.0 mi SW 4.6 mph - N/A   Overcast
11:54 PM 61.0 °F 57.0 °F 87% 29.91 in 10.0 mi SW 5.8 mph - N/A   Mostly Cloudy